Theta_e
327 327 327 326 326 326 325 322 322 327 326 322 324 328 327 327 326 323 322 321 319 320 325 326 325 325 325 325 324 323 324 322 321 324 325 324 324 325 325 324 324 325 325 325 325 325 327 326 325 326 326 327 328 327 327 326 325 324 322 321 321 320 320 319 316 313 312 312 311 310 311 311 312 313 312 311 310 309 310 311 309 308 308 308 308
326 326 327 326 325 325 324 320 322 327 325 321 325 328 326 326 324 319 321 323 322 323 325 326 325 325 325 324 324 323 323 323 322 323 324 324 324 324 324 323 324 324 324 325 324 324 327 328 327 327 326 327 328 328 327 327 326 325 323 322 320 319 319 317 315 314 314 314 312 311 312 312 312 313 312 312 311 309 310 312 310 309 309 310 310
325 326 326 324 324 324 322 321 322 325 322 319 325 327 325 324 322 319 322 324 324 325 325 325 325 324 324 324 323 323 322 322 323 323 324 324 324 324 324 323 324 324 324 324 324 324 326 328 329 328 325 326 327 326 326 327 326 325 323 321 318 317 318 316 316 316 315 315 314 312 313 313 313 313 313 313 313 311 311 312 313 312 311 312 313
325 325 324 324 324 323 322 323 323 324 321 320 325 326 324 323 322 322 324 324 325 325 323 323 324 322 323 324 323 322 321 320 322 323 323 323 323 323 323 323 323 323 323 323 323 323 325 328 330 328 326 326 325 324 325 325 324 323 322 320 317 317 317 316 316 316 317 316 315 314 314 313 314 314 314 314 314 313 312 313 314 314 313 313 314
325 324 324 324 323 321 323 325 324 323 321 322 326 326 324 325 324 325 326 325 325 324 322 322 322 321 322 323 322 321 319 319 320 322 323 323 322 322 322 322 323 322 322 322 322 323 324 327 330 329 327 327 325 324 324 323 322 321 321 320 318 317 317 317 316 316 316 316 316 315 315 315 315 315 314 314 315 315 314 313 314 314 314 313 313
324 325 325 323 322 323 326 326 324 323 323 324 326 325 325 326 326 326 326 325 323 322 322 322 321 320 321 321 320 319 318 317 319 321 322 322 322 322 322 322 322 321 321 321 321 323 323 326 328 329 328 327 326 325 324 323 322 321 320 320 318 317 317 316 316 316 316 316 316 316 315 315 315 315 315 315 315 315 315 314 314 314 314 314 313
325 327 325 322 324 327 328 326 322 322 325 325 324 325 326 327 326 326 325 323 322 321 321 320 319 319 320 320 319 318 317 317 318 319 321 321 322 322 322 322 321 321 321 320 320 322 323 324 327 328 328 328 326 325 324 322 321 320 320 319 318 317 317 316 316 316 316 316 316 316 316 316 316 315 315 315 315 315 315 315 314 314 313 314 314
326 326 323 322 326 327 327 326 323 322 326 327 326 327 327 326 325 325 323 321 319 319 319 319 318 319 319 319 318 317 316 317 317 318 319 320 321 321 321 322 321 321 321 320 320 322 322 323 327 328 327 326 325 324 323 322 321 321 320 319 318 318 317 317 317 318 317 317 317 317 317 316 316 316 316 315 314 315 315 315 315 314 314 314 314
326 326 324 324 326 326 325 324 323 324 326 326 326 327 327 325 324 323 321 320 319 319 319 318 318 318 318 318 318 318 317 316 316 317 318 319 319 320 320 320 320 320 321 321 320 321 321 322 324 325 325 324 324 323 323 322 322 322 321 320 320 320 319 319 319 318 318 318 318 318 318 318 318 316 316 316 315 314 314 315 315 315 315 315 315
327 327 326 325 325 324 323 322 324 325 325 325 326 326 325 324 322 320 319 319 319 319 318 318 318 318 318 319 319 318 317 317 316 316 317 318 318 319 318 318 318 319 320 320 320 320 321 321 321 322 324 325 325 324 324 323 322 322 321 321 321 320 320 320 319 319 319 319 319 319 319 319 318 317 317 317 316 315 315 315 315 316 316 316 315
327 326 326 325 325 323 323 325 325 322 322 324 326 325 323 321 320 318 319 320 319 319 319 319 319 319 319 319 316 313 314 314 313 313 315 317 318 319 319 318 318 318 318 319 319 319 319 321 319 319 320 322 323 323 322 321 320 320 320 320 320 320 320 320 320 320 319 319 319 319 319 319 319 318 318 318 317 316 316 316 315 316 316 316 316
325 325 325 326 326 325 324 325 323 322 324 325 325 325 322 320 319 319 319 320 320 321 320 320 319 319 318 316 312 312 312 312 310 310 311 312 314 315 318 319 318 318 318 318 318 318 318 320 320 318 318 318 318 318 317 316 315 316 317 317 316 317 318 319 320 320 320 319 318 318 318 318 318 318 318 317 317 317 316 316 316 316 316 316 316
325 325 325 325 325 325 325 325 324 324 325 324 324 324 321 318 317 318 318 317 318 320 320 318 318 317 316 314 313 314 314 313 313 312 311 310 309 310 316 319 317 317 319 319 319 319 319 319 320 320 319 317 316 316 317 316 315 314 314 314 314 314 315 316 317 319 319 319 319 319 318 317 317 317 317 317 316 316 316 316 316 316 316 316 316
323 324 323 323 324 324 323 323 323 324 324 323 323 320 317 316 316 316 316 316 316 317 318 316 315 315 314 314 314 314 314 314 314 314 314 313 311 311 315 318 317 318 319 319 320 320 319 319 320 320 320 319 317 317 318 319 318 316 314 314 313 312 313 313 314 316 317 318 319 319 318 318 318 317 317 316 316 316 316 316 316 316 316 316 316
322 322 322 321 321 321 321 321 322 322 321 320 318 315 313 314 315 315 315 315 316 316 317 316 315 314 314 314 314 314 314 315 315 315 315 315 314 314 315 317 318 319 319 319 319 319 319 319 318 318 318 319 318 318 319 319 320 319 319 317 316 315 315 314 313 313 314 315 315 315 314 315 317 318 318 318 317 317 317 317 317 316 316 317 317
319 320 320 320 320 320 320 320 320 319 319 318 317 315 314 314 315 315 315 316 316 316 316 316 316 315 316 315 314 314 315 316 316 316 316 315 316 316 316 317 319 320 320 320 319 319 320 319 318 319 319 319 318 318 317 316 316 317 319 320 319 319 319 317 315 314 313 313 313 312 312 312 313 314 314 315 316 317 318 319 318 317 316 317 317
318 318 318 319 318 317 317 318 319 318 318 318 317 317 317 316 317 318 317 317 317 317 317 317 317 317 317 317 317 317 318 318 317 317 317 317 317 317 317 318 319 320 321 321 320 321 321 319 318 320 320 318 318 317 316 315 314 314 316 318 319 319 320 319 318 317 316 315 314 313 312 312 312 312 312 312 313 314 316 319 319 318 317 317 317
317 318 318 318 318 316 316 318 319 318 318 318 318 318 319 319 319 319 318 318 319 318 318 318 318 318 318 318 318 318 318 318 318 318 318 318 318 319 318 318 319 320 320 320 320 321 321 319 318 319 319 318 318 317 317 317 316 316 316 317 318 320 320 320 319 319 318 318 318 316 314 313 313 313 313 313 314 314 315 317 318 318 317 317 318
315 315 315 316 317 317 317 318 318 318 318 319 318 318 318 317 318 317 317 317 317 317 317 318 318 318 318 318 318 318 318 319 318 318 318 318 318 318 317 316 316 317 318 317 317 318 318 318 317 317 317 318 318 318 318 318 318 318 318 318 318 320 320 319 319 318 318 318 318 318 318 317 316 315 316 315 315 315 316 316 316 316 316 317 318
310 311 312 313 314 314 315 315 315 316 316 316 316 316 316 316 316 316 316 316 315 315 316 316 315 315 315 315 315 315 315 314 314 314 314 313 313 313 312 312 312 313 312 312 313 313 314 314 313 312 312 313 314 314 314 314 314 314 314 315 315 316 317 316 316 316 316 316 316 317 317 317 317 316 315 316 316 316 316 316 317 316 316 317 317
303 304 306 307 308 308 309 309 310 310 311 311 311 312 311 311 311 310 310 310 309 309 308 308 308 307 307 307 307 306 306 306 307 307 307 307 307 306 307 308 307 307 307 306 307 308 309 311 311 310 310 310 309 309 309 309 310 310 310 310 311 313 314 314 313 314 315 317 318 317 316 317 318 317 315 314 313 313 313 315 316 316 316 317 317
302 302 302 302 302 303 303 303 303 303 303 304 305 304 303 303 303 303 303 303 302 302 302 301 301 301 301 301 301 301 301 301 301 302 302 303 303 302 303 303 303 302 302 302 302 304 307 309 309 308 307 307 306 306 305 305 305 305 306 307 308 309 311 312 312 313 315 316 317 317 316 317 318 319 318 316 314 313 311 311 313 315 316 316 316
300 300 300 300 301 301 301 302 302 302 300 300 300 300 300 300 299 300 300 299 299 299 299 299 300 300 301 302 300 298 299 299 300 300 300 300 300 300 300 300 300 300 300 300 300 301 302 304 304 303 303 303 302 301 301 301 301 301 301 302 302 303 304 305 306 307 309 311 313 315 317 317 317 317 317 316 316 316 314 312 312 314 315 316 315
300 299 298 298 298 299 299 299 300 300 299 299 299 299 298 298 299 298 298 299 300 300 299 299 300 302 303 303 301 300 300 299 298 298 299 299 299 299 299 299 299 299 299 299 299 299 299 300 300 299 299 299 299 299 299 299 299 299 299 299 300 300 300 300 300 301 302 303 305 307 310 312 314 315 316 315 315 315 315 314 313 314 314 314 314
299 298 298 297 297 297 298 298 298 298 298 298 297 298 298 298 298 298 299 300 302 303 302 302 303 303 303 304 304 303 303 302 300 299 298 298 298 298 298 298 298 298 298 298 297 298 298 298 298 298 297 297 297 297 298 297 298 298 298 298 298 298 298 298 299 299 299 299 299 300 302 305 307 310 313 314 314 313 313 313 313 313 313 313 312
297 297 297 297 297 297 298 298 298 298 299 299 299 299 300 299 299 300 302 302 303 303 303 303 304 304 304 305 305 305 305 305 304 302 300 298 298 298 298 298 298 298 298 298 298 298 298 298 298 297 297 297 297 297 297 297 297 297 297 298 299 300 300 300 299 299 299 300 300 300 301 304 307 309 310 311 312 312 312 312 312 312 311 311 311
297 297 297 297 297 297 298 299 299 299 300 301 301 300 301 302 302 302 303 304 304 304 304 304 304 305 305 305 305 305 305 305 304 303 300 298 298 298 298 299 298 298 298 298 298 298 298 298 298 298 298 298 298 299 299 299 300 300 301 302 303 304 304 304 303 302 301 301 301 302 302 303 305 308 308 309 310 311 310 311 311 310 309 309 309
296 297 297 297 297 297 298 300 301 300 299 299 298 298 299 301 302 300 299 300 302 303 304 304 303 303 304 304 304 305 305 304 303 301 299 298 298 298 298 298 298 298 298 298 298 298 298 298 298 298 300 301 302 302 303 303 303 304 305 306 305 305 305 305 305 304 303 302 303 304 304 303 304 306 308 308 309 310 309 310 309 308 308 308 308
296 296 296 297 297 298 298 300 301 302 301 299 297 297 297 298 298 298 297 297 298 298 299 300 299 299 301 302 302 302 303 302 300 299 298 298 298 298 299 299 299 299 298 298 298 298 298 298 299 300 302 303 303 303 303 303 303 303 303 303 303 304 304 304 304 304 304 304 304 305 305 305 306 306 307 307 308 309 309 309 308 308 308 308 306
298 298 297 297 298 299 300 300 301 301 302 301 300 298 298 297 297 297 297 297 298 297 298 298 298 298 299 299 298 298 299 299 299 299 299 299 299 299 299 299 299 299 299 298 298 298 298 299 301 302 302 302 302 302 302 302 302 301 301 301 302 303 303 303 303 303 303 303 304 305 305 306 307 307 308 308 308 308 307 307 307 307 307 306 305
300 299 298 297 298 299 300 300 300 301 301 301 301 300 300 299 298 298 298 298 298 298 298 298 298 297 297 297 297 297 298 298 298 298 298 299 299 299 299 299 299 299 299 298 298 299 300 301 302 302 301 301 301 301 301 301 301 301 301 301 302 302 302 302 303 302 302 302 304 305 306 307 307 307 308 308 307 306 306 306 306 305 305 304 303
300 300 299 298 298 299 300 300 300 300 300 300 301 301 301 301 300 299 299 298 298 298 298 298 297 297 297 297 297 297 297 297 297 297 297 298 299 299 299 299 299 299 299 298 298 300 301 301 301 301 301 301 301 301 301 301 301 301 301 301 301 302 302 302 303 303 302 302 303 304 305 305 306 306 306 306 306 305 305 306 305 304 303 301 300
299 299 299 299 299 299 299 300 300 300 300 300 300 300 300 301 301 301 300 299 299 298 298 297 297 297 297 297 296 297 297 296 297 297 297 297 298 299 299 299 299 299 299 298 299 300 300 300 300 301 301 301 300 300 300 300 300 301 301 301 301 301 302 302 302 302 302 302 302 302 302 302 303 304 304 304 305 304 304 304 303 301 300 299 299
298 297 297 298 299 299 299 299 299 300 300 300 300 300 300 300 300 300 301 300 300 300 299 299 298 297 297 297 296 296 296 296 296 296 296 297 298 299 299 299 299 299 299 299 300 300 300 300 300 300 300 300 300 300 300 300 300 300 301 301 301 301 301 301 302 302 302 302 302 301 300 300 300 301 302 303 304 303 302 302 301 300 299 298 298
298 297 297 297 298 299 299 299 299 299 299 300 300 299 299 299 299 300 300 300 300 300 300 300 299 298 297 297 296 296 296 296 296 297 297 297 298 298 299 299 299 299 299 300 300 300 299 300 300 300 300 300 300 300 300 300 299 299 299 299 299 300 300 301 301 301 301 300 300 300 299 299 299 300 301 302 302 301 300 300 299 299 298 298 298
298 298 298 298 298 298 298 298 299 298 298 299 299 299 299 299 299 299 299 299 299 300 300 300 299 299 298 297 296 296 296 297 297 297 297 297 298 298 299 299 300 299 299 299 299 299 299 300 300 300 300 300 299 299 299 298 298 297 297 297 298 298 299 300 300 300 300 300 299 299 298 298 298 299 300 300 300 299 299 298 297 297 297 297 296
298 298 298 298 298 298 298 298 298 298 297 298 299 299 299 299 299 299 299 299 298 299 300 300 299 299 298 298 297 296 297 297 297 297 297 297 298 299 299 299 299 299 299 299 298 298 299 299 298 298 298 298 297 297 297 296 296 297 297 297 298 298 299 299 299 300 300 299 299 298 298 297 297 298 298 298 297 297 297 296 297 297 296 295 294
298 298 297 296 296 298 299 298 298 297 297 297 298 298 298 298 298 298 299 298 298 298 299 299 299 298 298 297 296 297 297 298 298 297 297 298 298 298 299 299 298 298 298 298 297 297 298 298 297 297 297 296 296 296 296 296 297 297 297 297 297 297 298 298 298 298 298 297 297 296 296 295 295 295 296 296 296 296 296 296 296 295 294 293 293
298 298 297 295 294 296 298 298 297 297 297 298 298 298 298 298 298 298 298 298 298 298 298 298 298 298 297 296 296 297 297 298 298 297 297 297 297 298 298 298 298 298 298 297 297 297 297 297 296 296 295 295 295 295 296 296 296 296 296 296 296 296 296 296 296 296 295 295 294 294 294 294 294 294 294 294 294 294 294 294 294 293 292 292 292
298 298 297 296 295 296 297 297 297 297 297 297 297 298 298 297 297 298 298 298 297 297 298 298 298 297 296 296 296 296 297 298 297 297 297 297 297 297 297 297 297 298 298 297 297 297 296 296 295 295 295 295 295 296 296 295 295 294 294 294 294 294 294 294 294 294 294 294 293 293 294 294 294 294 294 294 293 292 292 292 292 292 292 292 292
298 298 298 297 296 296 297 297 297 297 297 297 297 297 297 297 297 297 297 297 297 297 297 297 297 296 296 295 295 296 296 297 297 297 296 296 296 296 296 297 297 297 298 298 298 297 296 295 295 295 296 296 295 295 295 294 294 294 294 293 293 293 293 293 293 293 293 293 293 293 293 293 293 293 293 293 292 292 292 292 292 292 292 292 292
298 298 298 297 296 296 297 297 296 296 297 296 296 297 297 296 296 297 296 296 296 296 296 296 296 296 295 295 295 295 296 296 296 296 296 296 295 295 296 297 297 298 297 297 297 297 296 296 296 296 296 296 295 295 294 294 294 294 293 293 293 293 293 293 293 293 293 293 292 292 292 292 292 292 292 292 292 292 292 292 292 292 292 292 292
298 298 297 297 297 297 296 296 296 296 296 296 296 295 295 296 296 296 296 296 295 295 296 296 296 296 295 295 295 295 296 295 295 295 295 295 294 295 296 297 298 298 297 297 297 296 296 296 296 296 296 296 295 295 294 293 293 293 293 293 292 292 292 292 292 292 292 292 291 291 291 291 291 291 291 292 291 292 292 292 292 292 292 292 292
298 298 297 297 296 296 296 296 296 295 295 295 295 294 295 295 296 296 296 295 295 295 295 295 295 295 295 295 295 295 295 295 294 294 294 294 294 295 296 297 297 297 297 297 296 296 296 296 296 296 295 295 295 294 293 293 293 293 293 292 292 292 292 292 292 292 291 291 291 290 290 290 290 291 291 291 291 291 291 291 291 292 292 292 292
298 298 297 296 296 296 296 296 296 295 294 294 295 295 295 295 295 295 295 295 295 295 295 295 295 295 295 294 295 295 295 294 294 294 294 294 295 296 297 297 297 297 297 297 296 296 296 296 296 295 295 294 294 293 293 293 293 293 293 292 292 292 291 291 291 291 291 291 291 290 290 290 291 291 291 291 291 291 291 291 291 291 291 292 292
298 298 297 296 296 296 296 296 295 295 295 295 295 295 295 295 295 295 295 295 295 295 295 294 294 294 294 294 294 294 294 294 294 294 294 295 296 296 296 296 296 297 297 297 296 296 296 295 295 294 294 293 293 293 293 293 293 293 292 292 292 291 291 291 290 290 290 290 290 290 290 290 291 291 291 291 291 291 291 291 291 291 291 291 292
298 298 297 296 296 296 296 295 295 295 295 295 294 295 295 295 295 295 294 294 294 295 294 294 294 294 294 294 294 293 293 294 293 293 294 295 295 296 296 296 296 296 296 296 296 295 295 294 294 294 293 293 292 292 292 292 292 292 292 291 291 290 290 290 290 289 289 289 290 290 291 291 291 291 291 291 291 291 291 291 291 291 291 291 291
298 297 297 296 296 296 296 295 295 295 295 295 294 294 294 295 295 295 295 295 295 295 294 294 294 294 294 294 293 293 293 293 293 293 293 294 294 295 295 295 295 295 295 295 295 295 294 294 294 293 293 292 292 292 292 292 292 291 291 290 289 289 289 289 289 289 289 289 290 290 291 291 291 291 291 291 291 291 291 291 291 291 291 291 291
297 297 297 296 296 296 296 295 295 296 295 295 295 294 295 295 295 295 295 295 295 294 294 294 294 294 294 293 293 293 293 293 293 293 292 293 293 293 294 294 294 294 294 294 294 294 294 294 293 292 292 291 291 290 290 290 290 290 289 288 288 288 288 288 287 288 289 290 290 290 290 290 290 291 291 291 291 291 291 291 291 291 291 291 291
297 297 297 296 296 296 295 295 295 295 295 295 295 295 295 295 295 295 295 295 295 294 294 294 294 294 294 293 293 293 293 292 292 293 292 292 292 292 293 293 293 293 294 294 294 294 293 292 291 290 290 289 289 288 288 288 288 288 287 287 287 287 287 287 287 288 289 290 290 290 290 290 291 291 291 291 291 290 291 291 291 291 291 291 291
296 296 297 296 296 295 295 295 295 295 295 295 295 295 295 295 295 295 294 295 295 294 294 294 294 294 294 293 293 293 293 292 292 292 292 292 292 292 292 292 292 292 292 292 292 292 291 290 289 289 289 289 289 288 288 287 287 287 287 287 286 286 287 287 287 288 289 290 290 290 290 290 291 291 291 291 291 291 290 290 291 291 291 291 291
Wind_Speed
29 30 31 30 28 28 27 27 26 22 21 24 23 19 18 17 15 14 13 11 11 11 10 10 10 10 10 10 9 8 7 7 8 6 5 7 6 6 7 7 6 6 7 7 8 8 8 9 10 9 10 10 10 10 9 10 11 13 15 10 7 11 12 10 14 14 11 11 12 13 13 12 12 12 11 8 5 6 8 7 5 5 6 6 6
31 32 33 32 32 31 29 28 26 22 23 26 22 19 19 18 16 14 12 11 10 10 10 10 10 9 10 10 9 8 7 7 7 6 5 5 5 5 5 5 5 6 6 5 6 7 8 8 9 10 11 10 10 11 11 12 11 12 14 10 7 11 10 10 15 14 12 13 12 12 13 12 12 13 11 8 5 6 9 9 6 5 6 6 7
33 34 34 34 33 33 30 27 25 25 26 26 22 20 20 18 16 14 12 12 11 10 10 10 10 9 10 10 10 8 7 7 7 7 6 6 6 5 5 5 6 6 5 4 5 6 6 7 8 11 12 12 12 12 12 13 11 10 12 9 9 11 8 9 15 14 13 14 13 13 13 12 12 13 13 10 7 5 10 12 9 6 6 7 9
35 35 35 35 33 32 29 26 24 25 27 25 21 20 19 17 17 15 12 12 11 11 11 10 9 10 10 10 10 9 8 7 7 7 7 7 6 6 5 5 6 5 4 4 5 6 6 7 9 11 12 13 13 12 12 13 12 11 12 9 9 10 7 8 15 15 14 13 13 13 13 12 12 12 13 13 10 7 9 13 12 9 8 8 10
36 35 35 36 34 31 28 25 24 25 26 24 21 19 19 18 16 15 13 12 11 11 11 10 9 10 10 10 9 8 7 7 7 7 7 7 7 7 6 6 6 6 5 5 5 5 6 8 9 10 12 12 13 13 12 13 12 12 12 11 10 10 8 8 12 13 14 13 12 12 12 12 12 12 13 14 13 10 10 12 12 11 11 10 13
35 34 35 36 34 32 30 25 25 26 25 24 22 20 19 17 16 15 13 12 12 11 11 10 10 9 10 9 8 7 7 7 7 7 7 7 7 7 7 7 7 6 5 5 4 4 6 8 9 11 11 11 12 13 13 13 13 12 13 12 11 11 10 10 10 10 13 14 13 12 12 12 12 12 13 14 13 12 11 12 12 12 12 12 15
33 32 33 35 34 33 31 27 27 27 24 22 22 20 18 17 16 14 13 12 12 11 11 10 10 9 9 9 8 7 7 6 7 7 7 7 7 7 8 8 7 7 6 5 4 2 4 7 9 10 10 10 12 14 14 14 12 11 13 12 11 12 13 12 10 10 11 12 13 12 12 13 12 11 12 12 13 12 12 12 12 13 13 14 16
30 29 31 33 33 33 31 28 28 26 23 22 21 19 18 18 16 14 14 13 12 11 11 10 10 9 9 9 8 7 7 7 8 9 8 7 7 7 7 7 7 7 6 5 5 3 2 5 9 11 10 10 13 15 15 14 12 11 12 12 11 11 13 13 11 11 11 11 12 12 12 13 13 12 11 12 13 13 13 13 13 13 13 14 16
28 28 29 30 31 29 28 29 27 26 25 23 21 20 19 18 17 16 16 14 13 12 11 11 10 10 10 9 8 9 11 12 13 13 12 10 7 6 6 7 7 7 7 6 5 4 2 4 7 10 10 11 14 16 16 15 14 11 11 13 12 10 11 12 12 12 12 13 12 12 12 13 13 13 13 13 14 14 13 13 13 13 12 13 14
25 26 26 28 28 26 27 29 29 28 27 23 21 20 19 18 18 18 17 15 13 13 12 11 10 9 10 9 10 13 15 15 14 14 14 13 9 6 6 6 6 7 7 7 7 6 5 5 8 8 8 10 13 14 15 16 17 14 12 13 13 11 11 12 12 12 13 13 13 14 14 14 14 14 15 15 15 14 13 13 14 13 13 13 15
23 24 24 25 25 26 28 28 28 29 27 23 21 20 18 18 18 17 16 15 13 12 11 10 10 11 11 9 10 12 12 12 13 14 14 14 12 8 5 5 6 6 7 8 7 7 6 6 7 7 8 9 11 12 13 13 14 16 15 14 13 13 13 12 12 11 12 12 13 14 14 15 15 15 15 15 15 15 14 14 14 14 15 15 16
25 26 25 25 26 26 27 27 27 27 24 22 22 22 22 22 21 20 19 18 16 14 13 13 14 14 13 10 9 9 8 8 8 9 10 11 11 9 5 4 6 6 6 7 6 7 8 7 7 7 8 10 11 10 11 11 11 13 14 14 13 14 15 14 13 12 11 12 13 13 14 14 14 14 15 14 14 15 15 15 15 16 16 18 19
30 28 27 28 29 29 29 29 29 29 28 25 24 24 25 25 23 23 21 19 17 14 14 16 16 13 10 10 10 9 8 7 6 6 6 6 8 8 5 3 5 5 6 6 6 6 7 7 7 7 9 11 11 9 9 11 12 14 14 15 15 15 16 17 17 16 15 14 13 13 13 13 13 14 14 14 14 15 16 17 17 18 18 20 21
26 27 27 27 27 27 28 28 27 27 28 27 24 25 25 23 22 21 18 17 15 11 11 14 14 11 10 10 10 8 7 7 6 6 6 5 6 7 6 4 5 5 5 6 6 6 6 6 6 7 8 10 11 9 9 10 12 15 17 17 17 18 19 20 20 20 19 19 18 16 15 13 14 14 14 14 15 16 17 18 18 19 20 21 22
20 23 25 24 24 24 24 23 22 22 22 22 21 23 24 22 19 18 17 16 13 12 13 14 13 13 12 11 10 9 8 7 6 6 6 5 6 5 5 5 5 5 5 6 6 6 6 6 6 6 6 8 10 11 11 10 10 12 13 14 16 17 18 21 22 23 23 23 23 23 20 18 17 16 15 16 16 16 19 20 20 21 21 21 22
21 22 22 21 21 21 20 19 19 19 19 18 16 17 19 19 16 15 17 17 14 15 16 16 14 14 13 12 11 9 8 8 7 7 7 6 6 6 6 5 5 5 6 6 6 6 7 8 7 7 8 10 12 14 14 13 13 13 12 12 14 15 16 19 22 24 24 24 24 24 24 24 23 22 21 21 20 19 18 19 20 23 22 21 21
21 21 20 20 20 18 16 16 17 16 17 17 15 13 14 15 15 15 17 16 14 15 16 15 14 14 12 11 10 9 9 9 8 8 7 7 7 7 5 4 5 6 6 7 6 5 8 11 9 9 12 14 15 16 16 15 15 16 15 15 15 16 17 18 21 24 25 25 25 25 26 26 26 26 26 26 26 25 22 20 21 22 23 22 24
18 18 18 19 18 16 13 13 14 15 16 17 16 14 13 14 15 16 16 16 15 14 13 12 12 11 10 10 10 10 10 10 9 9 9 8 9 9 6 3 4 5 5 7 6 6 10 14 13 13 16 16 17 18 18 17 18 19 19 20 19 19 20 21 23 23 23 24 26 26 27 28 28 29 29 29 29 29 28 28 27 27 27 25 26
18 17 16 15 16 16 14 14 15 16 17 16 16 16 15 15 16 15 15 14 13 13 12 11 11 10 9 9 9 9 9 9 9 8 7 7 8 8 7 4 4 6 6 6 6 6 10 15 16 16 17 17 18 20 20 20 20 21 22 22 22 22 24 27 27 26 25 26 27 28 28 29 30 31 32 32 32 32 33 34 33 32 33 30 27
18 17 16 15 15 15 14 14 14 15 16 16 15 15 15 14 14 14 13 12 11 11 10 9 8 8 8 8 7 7 7 7 7 6 7 7 7 8 10 9 10 11 11 11 10 8 9 15 18 19 19 20 20 21 22 22 23 23 23 24 24 25 27 29 29 29 30 30 30 30 30 30 31 32 33 33 34 34 35 36 36 35 36 33 28
18 17 16 15 14 14 13 13 13 13 14 14 14 13 12 12 11 10 9 9 8 8 8 7 7 6 7 7 7 7 7 8 8 8 9 10 11 12 14 14 14 15 15 16 15 11 9 13 18 20 22 25 25 24 25 26 26 28 28 28 29 29 30 31 31 30 30 30 29 29 29 30 30 30 32 34 35 35 34 34 34 34 36 36 31
16 15 14 14 13 13 12 11 11 11 11 12 12 11 11 10 9 8 7 7 6 6 6 6 6 5 5 6 6 8 8 9 10 10 11 12 13 14 16 17 17 18 18 19 18 14 10 13 20 24 26 29 29 28 29 29 30 31 32 32 33 33 33 34 34 33 33 33 31 28 27 28 27 26 28 31 32 34 34 32 32 33 34 35 35
13 13 12 12 12 11 10 10 9 9 9 9 9 9 9 8 8 7 7 6 6 5 5 5 4 3 3 4 6 7 8 9 10 11 12 13 14 15 16 17 18 19 19 20 20 19 19 21 26 29 29 30 30 30 31 31 32 33 33 34 35 35 36 37 37 37 37 37 37 34 31 31 30 28 30 29 28 31 33 30 30 32 33 35 36
13 12 10 10 11 10 9 8 7 6 7 8 7 7 7 7 6 5 5 5 4 2 2 3 2 2 2 1 4 6 7 9 10 10 11 12 13 14 15 16 17 18 19 19 20 22 24 26 28 29 28 29 29 29 30 31 31 32 32 33 34 35 36 36 37 37 38 38 39 39 38 38 36 34 34 31 27 28 30 29 29 32 33 35 36
11 10 8 8 9 9 9 8 7 7 7 7 7 7 6 6 6 5 4 5 5 4 3 3 2 1 1 1 1 2 4 7 10 10 10 11 11 12 13 14 15 15 16 18 19 21 23 24 24 25 25 26 27 27 27 27 27 28 28 29 30 31 33 34 35 36 36 37 37 37 38 38 37 35 36 35 30 28 29 29 31 33 33 33 33
9 9 8 7 7 8 9 9 8 9 9 9 8 7 6 6 5 6 5 4 4 4 3 3 3 2 2 2 1 1 1 2 4 7 9 11 11 12 12 13 14 14 14 16 19 20 21 21 21 22 23 24 25 25 25 25 25 25 25 23 23 23 24 25 28 30 32 33 33 33 32 31 28 29 33 35 33 30 30 30 31 30 29 27 27
8 8 8 7 7 7 7 8 8 8 8 7 6 5 6 7 5 3 4 4 4 4 4 4 3 3 3 2 1 2 2 2 4 7 11 12 12 12 13 14 14 14 14 15 18 19 19 19 19 19 19 19 19 19 20 19 19 20 19 18 18 18 17 17 20 23 27 28 29 29 30 28 25 24 28 32 31 29 28 30 30 28 24 23 25
7 6 6 5 6 6 7 8 8 6 4 4 3 3 5 5 3 1 3 4 4 4 3 3 2 3 3 3 2 3 1 4 8 10 11 10 10 11 12 12 13 13 13 14 15 16 16 16 15 14 14 13 14 14 14 13 13 13 12 12 14 16 17 19 21 22 22 23 24 24 24 25 24 21 21 25 27 26 27 28 28 27 27 27 27
6 5 4 4 6 7 7 8 8 7 5 5 5 5 4 3 3 2 1 2 3 4 4 3 4 5 4 2 3 3 2 5 7 9 10 10 10 10 11 11 12 12 12 12 12 13 14 13 11 10 10 10 10 10 10 11 12 13 13 13 14 15 16 18 19 20 19 19 21 21 20 22 24 23 23 27 29 29 29 28 27 29 30 27 24
7 6 4 4 6 7 7 7 7 7 5 5 7 9 8 7 6 5 4 2 2 2 2 3 3 3 3 3 3 2 1 3 5 7 8 9 9 10 10 10 11 10 11 11 11 11 11 11 9 8 9 9 10 10 11 12 13 14 14 14 13 14 16 17 18 19 20 20 20 21 21 22 24 24 25 28 29 27 26 24 25 27 27 23 22
6 7 6 5 7 7 6 6 6 6 5 5 6 8 9 10 10 10 8 5 3 2 3 3 3 3 3 2 2 1 2 3 5 6 8 9 10 10 11 11 11 11 10 10 9 9 9 9 8 8 9 10 10 11 12 12 13 13 14 14 14 14 15 16 17 19 21 21 20 20 20 21 21 21 23 24 23 22 22 22 23 24 23 21 21
5 6 6 6 7 7 6 5 5 5 4 5 5 4 5 8 9 10 10 8 6 4 2 2 2 2 1 1 1 2 3 4 5 7 9 9 10 11 11 10 10 10 10 8 7 7 7 7 7 8 9 10 10 11 11 12 12 13 13 14 15 15 14 15 17 19 21 22 22 20 19 20 20 19 20 20 18 19 21 22 22 22 20 19 20
4 4 3 3 5 6 5 4 5 4 3 4 4 3 3 4 5 7 8 9 9 8 5 3 2 2 1 2 3 3 4 5 6 7 8 9 10 10 10 10 10 9 8 6 6 7 7 6 6 7 8 9 9 10 10 10 11 12 13 13 15 15 14 15 18 19 18 18 18 17 17 19 20 20 20 19 18 19 21 22 21 20 19 19 19
6 7 6 4 3 4 4 4 4 3 3 3 3 3 3 3 4 4 6 8 10 11 10 9 7 6 6 6 5 5 5 6 6 6 7 8 9 8 9 11 12 12 11 9 7 7 7 6 6 7 8 8 9 10 10 11 11 12 13 13 14 14 13 13 15 16 16 16 16 14 13 13 15 17 19 18 17 18 19 20 21 20 20 20 19
6 10 11 9 5 3 4 4 3 3 3 3 3 3 3 3 4 3 3 5 6 7 10 12 11 11 11 10 7 6 6 6 6 6 7 8 8 8 9 11 10 10 11 9 7 6 6 6 7 7 8 8 9 9 10 11 12 12 13 13 15 17 17 15 14 14 15 16 17 16 15 14 14 16 17 17 15 16 17 18 18 19 20 19 15
3 5 8 8 5 3 4 3 2 3 2 1 1 2 2 2 2 2 2 3 3 3 5 8 10 12 14 12 8 6 5 5 6 6 6 7 9 10 10 9 8 7 7 6 6 5 6 6 6 6 7 8 9 9 11 12 13 13 14 14 16 17 17 18 18 19 19 20 20 19 16 15 15 15 16 14 13 14 16 17 17 16 15 13 10
2 2 4 4 1 2 4 3 4 5 3 1 1 2 2 2 2 2 2 3 3 2 2 3 5 8 11 11 9 6 6 7 9 9 8 8 11 10 8 7 6 6 5 6 6 6 5 6 6 7 7 8 9 9 11 11 12 12 13 14 14 15 15 16 19 21 22 22 21 17 13 11 11 12 12 12 13 14 15 16 16 14 12 11 9
2 4 7 4 2 2 3 4 6 8 5 1 1 3 3 3 3 3 3 3 3 3 2 2 3 4 5 7 6 5 9 9 10 10 8 7 8 7 6 5 5 5 5 6 6 6 6 7 7 7 8 8 8 9 9 10 10 10 11 10 10 10 11 12 13 15 15 14 11 8 4 2 3 4 6 8 10 12 13 14 13 11 9 9 7
4 7 10 7 2 2 1 2 4 6 5 3 4 4 3 3 3 3 3 3 3 3 3 2 2 3 5 6 4 5 7 6 6 5 5 5 5 5 5 5 6 7 6 6 6 6 6 7 7 7 7 7 7 7 8 9 10 11 10 10 9 8 8 8 8 8 8 6 4 3 2 5 6 6 7 8 9 9 9 9 7 5 5 6 5
4 7 9 9 5 2 3 3 4 4 4 4 5 5 4 4 4 3 3 3 3 2 2 1 2 6 7 6 4 5 6 4 4 4 5 5 5 5 5 5 6 8 8 7 7 6 6 6 6 6 6 6 6 8 9 10 10 10 10 10 10 10 11 11 11 11 9 7 4 1 4 7 8 8 10 10 9 8 7 8 8 6 5 5 5
4 5 6 8 7 4 3 4 6 6 6 5 4 5 5 4 4 3 3 2 2 2 1 1 2 6 7 6 6 6 6 5 4 4 5 6 5 5 4 5 6 7 8 8 7 7 6 5 4 5 6 7 8 10 10 9 8 8 8 9 8 9 10 11 11 10 9 8 7 6 6 7 7 7 7 7 6 5 5 6 6 5 4 4 4
3 4 4 5 6 5 3 4 6 6 6 5 4 4 4 3 3 3 2 1 1 1 1 1 1 6 8 9 9 9 8 6 4 4 5 5 5 5 4 4 5 6 8 8 7 6 6 6 6 6 7 8 9 9 9 9 8 8 7 8 8 7 7 7 8 8 9 9 9 8 7 7 8 7 6 6 6 6 5 4 5 5 5 4 4
3 3 4 4 5 4 4 4 4 4 4 4 4 3 3 3 3 2 1 1 1 1 2 2 3 4 7 9 11 10 8 6 5 5 4 4 5 4 3 3 4 5 6 6 6 6 7 7 7 7 7 7 7 7 7 8 8 8 8 8 8 8 7 6 6 6 7 7 8 8 8 9 10 10 9 8 7 7 6 5 5 5 5 4 4
3 3 4 4 4 4 4 4 4 3 3 3 2 1 1 1 1 1 1 1 1 2 3 3 4 4 5 7 8 8 7 6 5 5 4 4 3 3 4 4 5 4 5 6 7 6 6 7 7 6 6 7 7 7 7 7 7 8 8 8 8 8 6 5 4 4 5 6 7 8 8 9 9 9 8 7 7 6 6 5 5 4 4 4 4
4 4 4 4 4 4 4 3 4 4 3 2 1 1 0 1 1 1 1 1 2 3 3 3 3 4 4 5 6 6 6 6 5 5 5 4 3 4 5 6 5 4 4 6 6 6 6 6 7 6 6 6 6 7 7 7 7 7 7 7 7 7 6 5 4 4 5 6 6 7 7 8 8 8 7 7 6 6 5 5 5 4 4 4 4
4 3 3 4 4 4 3 3 4 4 4 2 1 0 1 1 2 2 2 2 2 3 3 3 3 4 4 4 5 5 5 5 5 6 6 6 6 6 6 5 4 4 4 5 6 6 6 7 7 7 7 7 7 6 6 6 7 7 6 6 6 6 4 4 4 5 5 5 6 6 6 6 7 7 7 6 5 5 4 4 4 4 4 5 5
5 4 3 4 4 4 4 3 4 4 3 1 0 1 2 2 2 2 2 2 3 3 3 3 3 3 3 4 4 5 5 5 5 6 7 8 8 7 6 5 5 5 4 5 6 6 6 6 6 6 7 7 6 6 6 5 4 4 5 5 6 5 3 3 4 3 3 4 7 8 8 7 6 6 6 5 4 4 5 5 4 4 4 4 5
6 5 4 4 4 4 4 4 4 4 2 1 1 1 2 2 2 2 2 2 3 3 3 2 3 3 3 3 4 4 5 5 5 5 5 6 7 7 7 6 6 6 6 5 5 4 5 5 5 5 5 5 4 4 4 4 3 4 4 5 5 4 3 2 2 2 2 3 6 8 7 5 3 3 4 4 4 4 4 4 4 4 4 4 4
7 5 4 5 4 4 4 4 3 2 0 1 1 1 2 2 2 2 2 2 2 2 2 2 2 2 3 3 4 4 4 4 5 5 5 4 5 6 6 6 6 6 5 5 5 5 5 5 5 4 4 4 4 5 5 5 5 5 5 4 3 2 1 2 2 3 5 6 6 6 5 3 3 3 4 5 5 5 4 4 4 4 4 4 4
7 6 5 5 5 5 5 4 3 3 2 1 0 1 1 1 2 2 2 2 2 2 2 2 2 2 2 3 3 3 3 3 4 4 4 3 4 5 6 5 4 4 3 3 4 4 4 4 4 5 5 5 6 6 6 6 5 5 4 3 2 1 1 1 2 3 5 6 4 3 3 3 3 3 3 4 5 5 4 4 5 5 5 5 5
8 7 7 6 6 6 6 5 5 4 3 3 2 2 2 2 2 2 2 3 3 2 2 1 1 1 1 2 2 2 2 2 3 3 3 2 2 4 5 4 3 3 3 2 2 3 3 3 4 4 5 5 6 6 5 5 5 4 3 3 3 2 1 2 2 2 5 6 5 3 2 2 2 2 2 2 4 4 4 4 5 5 5 5 6
Wind_Direction
180 184 186 185 185 185 182 179 179 179 179 177 172 167 166 168 168 167 165 169 173 169 166 170 170 171 176 178 177 182 191 197 198 201 207 214 211 205 217 216 208 226 224 218 225 218 216 223 215 205 202 194 185 182 192 196 182 176 172 159 163 186 190 177 154 152 163 165 162 168 174 174 168 173 188 201 204 185 188 209 211 205 225 232 223
177 183 184 182 183 184 182 180 178 178 179 177 173 169 169 169 171 170 166 168 169 167 172 176 172 173 176 177 179 182 186 188 185 184 191 196 190 190 204 204 203 222 223 218 225 218 211 213 215 210 201 191 187 187 191 192 185 173 165 159 171 184 188 167 150 154 166 166 166 171 176 178 176 181 195 209 214 190 191 211 226 221 220 223 232
179 183 183 181 182 182 179 177 179 181 183 181 175 171 171 171 172 171 169 169 167 170 179 178 174 176 175 177 180 180 180 180 176 177 184 185 183 185 188 187 194 205 208 208 218 221 212 203 210 211 199 192 192 193 188 184 184 175 168 172 173 176 193 173 156 161 169 168 173 175 178 184 183 189 200 213 235 216 193 208 228 235 215 209 231
178 180 181 181 181 179 175 176 181 182 182 182 177 172 174 175 173 171 171 170 169 176 181 178 177 178 175 177 179 176 178 178 172 174 181 184 186 189 187 185 185 187 193 201 213 225 212 199 208 207 197 196 194 190 187 183 180 174 169 170 169 175 195 170 158 166 171 172 180 181 184 190 190 196 200 207 230 231 201 207 218 225 221 212 224
176 177 179 180 179 176 176 178 180 180 179 180 177 174 177 178 174 170 170 172 174 177 176 175 179 179 176 178 178 176 177 175 171 173 175 179 183 186 186 184 183 184 193 198 205 227 215 200 207 203 194 196 191 183 185 182 177 175 173 173 171 173 183 170 164 172 174 177 186 188 189 192 195 202 201 202 213 216 211 215 218 222 224 219 228
175 174 176 177 176 176 178 179 178 178 178 179 179 177 176 177 174 170 171 173 175 175 173 174 178 179 177 177 177 178 177 173 175 177 176 177 179 184 184 182 186 188 195 199 203 237 224 202 206 204 193 192 186 179 181 180 178 180 182 185 182 174 178 185 184 182 180 184 189 191 195 197 198 205 206 205 209 211 214 219 221 224 224 222 234
176 173 174 176 177 178 178 177 179 181 179 181 182 177 174 175 173 170 173 176 174 171 172 174 176 175 174 176 177 175 170 168 173 174 179 182 180 185 187 185 188 188 191 201 206 246 235 205 206 203 189 188 186 177 176 178 180 182 186 194 195 182 182 190 194 193 195 196 195 196 201 203 204 208 210 210 212 216 219 220 223 227 228 226 232
177 172 173 176 180 183 178 173 178 183 182 180 177 173 175 176 170 167 170 172 170 168 168 169 170 170 172 174 173 168 166 173 176 172 176 183 182 187 191 190 197 197 194 201 208 230 238 206 207 202 190 190 190 180 176 180 183 185 188 196 200 186 182 193 202 202 205 209 208 207 207 208 210 213 215 215 217 220 223 225 227 229 231 233 232
175 171 175 179 181 182 177 174 180 187 188 183 175 173 175 169 162 165 166 163 162 162 160 159 160 163 166 163 162 170 180 186 183 173 169 170 174 188 194 193 203 211 208 208 213 220 219 209 214 209 198 195 191 183 182 184 184 187 194 200 200 190 186 198 209 213 215 219 220 218 217 217 217 216 217 219 219 223 227 230 233 234 234 239 240
170 169 176 181 181 181 179 178 184 189 190 184 176 174 173 166 165 168 164 158 157 156 155 154 154 155 156 162 178 189 192 192 188 178 169 161 157 172 195 195 200 211 212 214 218 212 208 227 227 209 195 195 191 187 191 192 189 189 193 199 201 202 204 210 215 219 220 222 224 223 223 224 223 220 219 220 221 225 231 233 236 239 240 241 246
166 173 179 180 182 186 186 184 187 189 186 180 172 166 163 160 159 158 156 155 154 152 152 153 156 163 169 179 193 193 190 190 189 185 178 170 160 154 169 196 198 203 207 211 217 210 206 231 235 210 194 198 197 196 200 200 196 193 192 198 201 203 208 213 218 224 226 226 227 226 225 227 227 224 222 224 225 228 234 239 240 241 242 244 249
156 174 181 177 174 179 183 184 185 182 174 168 165 165 165 164 161 160 163 163 156 153 161 168 174 183 186 185 179 173 171 172 175 179 181 184 181 165 153 191 199 199 205 208 214 211 206 219 227 214 206 205 203 206 209 208 207 205 205 212 215 212 210 210 211 216 223 229 232 230 229 230 229 228 229 230 231 233 237 241 242 241 244 247 250
147 159 167 169 171 175 178 178 176 174 171 169 169 173 175 173 170 169 169 167 161 159 169 180 186 189 187 181 175 174 173 165 162 168 169 177 183 168 153 187 202 195 203 209 213 208 203 210 218 222 229 225 216 215 224 229 232 230 230 234 235 231 227 223 217 214 215 221 228 232 235 237 236 234 233 233 234 236 240 243 245 246 248 250 251
144 148 151 159 167 172 173 173 174 177 179 180 179 178 175 168 167 169 168 167 170 176 188 195 196 192 191 191 187 184 182 176 174 175 167 166 174 169 163 180 196 200 205 209 213 210 208 215 218 223 238 242 233 225 230 243 249 249 249 248 248 246 242 238 233 227 223 221 222 227 231 235 241 242 239 239 240 239 241 244 246 250 252 254 257
143 150 152 156 161 164 169 175 180 179 176 173 173 174 171 165 165 171 174 180 196 216 219 213 203 194 196 200 197 193 191 190 188 185 184 182 182 195 204 192 189 207 215 214 218 221 227 230 230 234 242 245 241 234 229 235 247 255 257 256 256 256 252 248 244 240 238 236 236 239 239 238 240 242 241 242 243 242 245 247 247 250 253 253 256
128 141 147 148 148 148 153 161 165 163 161 161 163 168 172 174 181 191 196 204 215 214 206 202 197 193 193 195 197 199 199 200 202 203 207 202 194 213 233 224 217 226 226 226 225 228 235 232 228 239 242 237 240 243 242 243 248 255 259 259 259 257 255 255 255 254 252 251 250 251 252 251 251 250 251 250 248 247 248 248 248 251 251 249 250
120 128 135 137 138 140 148 158 163 166 171 177 185 190 188 192 201 202 198 199 200 194 192 194 195 193 193 194 198 204 205 208 212 211 213 214 213 220 232 244 251 246 246 249 243 236 247 243 233 236 241 240 244 251 254 254 255 257 259 260 261 261 260 261 263 264 264 263 262 259 258 260 260 259 258 256 255 252 247 244 246 250 251 252 253
119 123 129 133 138 144 156 169 172 174 175 178 185 188 184 184 186 181 177 178 181 185 190 194 197 200 204 205 208 213 214 215 218 218 220 222 226 230 231 250 270 257 256 266 262 255 262 262 254 249 250 252 254 256 258 258 257 258 259 260 261 263 262 259 259 263 266 266 266 264 262 261 260 261 260 258 257 255 251 248 250 252 254 255 256
112 114 116 120 128 137 146 156 161 162 162 162 166 168 168 171 174 174 174 177 182 188 190 193 200 204 206 207 212 215 216 217 220 222 225 228 232 235 229 232 259 252 247 263 270 264 270 273 269 263 262 262 261 262 263 263 263 263 263 264 263 262 261 259 260 262 264 263 265 268 267 264 260 260 261 260 259 258 257 257 256 255 258 258 256
100 103 107 110 114 119 127 137 143 146 149 150 153 158 162 164 167 168 167 164 169 175 176 180 186 187 189 193 201 207 211 219 227 231 237 239 243 248 245 243 250 253 253 258 262 262 272 277 276 273 271 267 264 265 266 266 266 266 266 266 266 265 265 265 265 265 265 265 266 267 269 271 269 265 262 260 259 259 259 260 260 258 259 258 256
100 101 105 108 109 110 113 118 123 127 132 135 139 143 146 147 149 152 150 147 155 165 167 172 181 191 198 203 211 221 224 228 233 239 246 250 249 250 253 254 257 259 260 261 260 260 269 276 272 269 270 270 268 267 266 267 268 269 268 267 266 265 266 267 267 266 266 265 265 264 265 269 271 270 267 265 262 260 258 259 262 262 259 257 255
101 104 107 110 112 115 116 117 119 122 126 130 133 135 136 139 141 147 151 156 167 176 181 188 196 207 223 232 238 242 245 249 250 250 251 254 254 254 257 260 261 260 259 259 257 252 248 255 257 257 261 267 270 269 269 269 268 268 268 268 267 266 265 265 265 264 262 261 262 264 263 261 261 263 265 265 264 264 263 262 262 262 260 257 255
85 91 98 103 105 108 110 112 116 120 123 127 131 134 138 143 146 152 158 161 169 176 179 186 196 199 216 249 260 261 260 260 260 260 260 259 258 257 258 260 261 262 260 260 259 254 247 249 255 259 263 268 272 273 274 273 271 270 269 268 268 268 267 267 267 266 264 262 262 261 258 256 258 260 261 260 260 265 266 263 261 261 259 257 256
70 74 79 87 93 96 98 104 111 114 116 118 120 123 128 131 132 136 138 132 128 138 152 156 161 160 162 243 285 292 283 272 267 264 263 264 264 265 265 264 264 265 264 263 262 260 258 260 265 269 272 273 274 273 273 272 272 273 272 271 271 270 269 269 269 269 269 267 266 264 262 261 261 263 265 265 262 261 263 263 262 261 257 254 254
64 67 69 74 84 90 89 91 100 106 106 108 110 111 113 120 124 120 111 108 104 91 82 89 92 93 107 90 359 333 309 302 297 285 274 274 275 275 277 276 274 274 275 272 268 267 268 272 276 278 279 281 281 281 279 279 278 277 276 276 274 273 271 271 271 271 271 271 271 270 269 268 267 267 267 267 262 258 259 261 261 259 256 256 258
72 73 72 67 68 74 77 75 78 83 81 75 77 85 82 76 85 91 82 75 81 85 85 84 78 69 78 88 83 65 37 352 326 308 302 305 304 299 297 295 292 292 290 285 283 283 284 287 289 290 290 291 291 292 292 293 292 292 292 291 290 288 284 278 273 271 271 272 274 274 272 271 272 269 266 265 264 262 261 261 262 260 258 261 266
72 71 71 70 65 67 73 70 65 74 86 82 80 91 87 69 61 84 112 100 84 74 71 72 85 89 76 72 75 60 73 167 232 284 307 315 314 310 310 308 306 304 302 298 299 301 304 304 303 301 301 302 304 306 307 309 311 312 312 310 310 310 302 284 274 272 270 267 268 270 270 269 268 266 265 266 266 265 262 261 260 260 261 266 268
76 71 65 65 66 67 76 75 63 58 82 97 105 133 128 112 105 176 179 156 149 145 121 106 147 141 92 57 73 91 103 246 261 290 313 318 314 310 307 304 302 303 304 304 308 313 316 315 316 318 321 322 323 324 324 324 321 316 309 301 297 295 289 282 282 286 285 277 271 270 271 269 264 260 265 268 267 265 264 262 260 261 267 271 269
75 81 80 77 68 58 59 69 66 52 36 34 43 62 87 107 101 86 99 133 167 177 170 174 187 170 143 133 154 154 204 273 297 320 328 325 321 318 312 306 305 305 305 309 313 316 318 325 337 344 339 330 325 321 317 313 305 294 285 282 284 284 285 286 286 286 285 280 277 278 278 271 265 261 262 265 266 266 266 265 263 264 266 266 263
39 41 51 75 75 54 40 46 57 56 42 20 21 35 42 40 42 44 41 49 84 140 153 145 145 149 152 156 153 152 265 319 340 344 339 337 336 333 329 325 322 319 316 315 317 323 335 349 356 347 331 323 319 314 310 307 304 299 293 291 291 289 287 287 286 285 282 278 278 282 279 271 267 266 265 266 266 264 260 258 259 261 259 255 254
36 32 32 55 74 62 42 39 44 48 50 36 18 17 18 17 23 28 25 26 52 89 109 116 123 131 136 132 107 64 18 9 4 355 351 351 350 349 347 339 330 324 321 318 326 343 355 354 342 328 322 319 314 311 309 306 304 304 305 305 303 298 294 292 292 295 298 296 291 286 278 271 270 269 268 269 266 259 254 255 257 258 256 249 244
40 34 24 33 50 49 39 39 40 38 42 42 34 22 6 359 3 10 16 25 34 40 65 100 119 132 128 97 24 18 9 0 357 356 355 352 350 353 352 343 332 325 319 321 346 4 352 330 325 325 321 316 312 311 310 307 305 307 308 307 305 304 304 301 296 295 297 298 296 290 283 279 279 276 273 272 266 256 256 259 256 250 243 232 227
41 48 39 38 40 34 29 34 36 36 37 35 36 40 28 8 357 352 356 8 13 9 7 10 358 332 324 331 335 342 342 340 343 347 350 349 351 354 357 358 358 354 346 347 4 0 338 324 327 325 319 318 316 311 308 309 309 309 307 307 307 306 304 304 302 297 292 290 292 294 293 289 285 279 277 277 273 263 256 251 242 230 218 212 211
21 21 22 37 38 19 19 27 25 25 30 27 26 25 18 15 12 350 340 349 357 355 350 346 341 336 337 336 335 333 329 328 333 337 343 350 354 4 17 19 14 12 17 22 13 351 337 336 335 330 327 326 319 313 314 316 313 311 309 307 303 296 290 292 297 297 290 281 278 281 285 283 281 278 276 276 275 267 255 245 236 223 209 205 205
358 358 7 24 38 16 2 6 5 5 10 6 5 7 358 356 4 2 347 348 349 343 337 336 336 337 334 330 332 339 337 335 340 342 345 354 1 15 31 30 18 13 18 17 5 352 349 346 340 334 329 323 317 315 317 312 307 307 308 302 290 280 274 272 277 284 287 284 280 278 275 270 272 277 279 277 272 261 246 234 227 218 208 205 202
338 336 351 9 21 357 336 337 336 332 323 293 318 335 331 332 341 339 339 341 332 320 327 329 331 335 336 333 333 345 348 350 355 350 349 11 26 31 30 22 12 9 10 360 352 359 358 344 335 330 324 321 321 320 315 309 308 311 312 307 300 293 284 277 274 276 277 279 283 287 285 276 273 277 279 273 260 244 228 215 207 202 198 193 186
347 341 334 335 327 322 322 297 276 294 298 189 219 295 292 287 298 303 317 323 311 296 319 322 321 336 341 333 327 344 7 8 3 358 2 28 43 39 23 7 3 5 0 349 349 2 358 342 338 339 336 335 335 333 326 322 322 324 323 321 320 315 302 288 280 277 276 277 282 289 292 287 280 277 269 255 235 219 209 202 195 190 185 177 172
295 323 329 319 210 216 312 295 286 306 332 24 270 285 277 266 278 286 295 310 317 316 319 315 316 326 321 306 310 7 31 18 4 1 4 21 38 30 8 357 3 7 4 355 355 4 5 355 351 352 351 349 350 346 344 347 350 351 348 343 339 332 321 308 297 289 283 280 279 282 290 299 279 263 247 231 214 198 193 193 191 186 182 173 167
282 301 320 331 314 216 270 306 305 313 321 301 273 273 268 267 273 271 273 292 307 297 282 292 294 278 285 303 336 57 58 24 359 2 4 12 29 26 9 0 2 4 6 3 359 6 14 8 3 1 0 1 2 3 10 20 24 24 22 17 14 13 10 5 1 349 334 320 301 267 181 148 150 157 159 160 160 160 165 168 161 150 152 152 149
267 287 313 337 346 301 280 305 305 289 275 269 268 264 256 256 257 254 261 275 282 267 257 265 250 252 275 318 7 83 89 49 12 13 17 16 23 25 17 7 0 358 357 352 347 357 11 10 4 6 11 19 27 34 40 41 34 29 30 29 29 35 42 45 44 41 36 35 38 93 139 138 138 139 140 139 137 134 132 125 116 114 126 136 138
255 275 302 332 344 331 287 295 296 281 264 255 252 250 247 242 242 249 259 264 260 249 224 172 263 280 302 340 24 65 71 50 24 22 27 23 18 16 11 2 357 356 353 345 342 353 7 13 19 32 44 51 52 49 46 41 33 28 28 29 29 36 45 53 60 64 66 74 88 101 109 113 119 128 137 134 116 98 95 96 98 106 118 117 106
249 266 285 317 332 329 304 297 302 295 278 255 242 242 238 231 233 248 255 239 214 205 160 117 351 332 346 18 47 56 50 37 27 28 31 25 16 8 357 353 0 0 354 349 355 16 34 47 57 57 58 61 61 54 43 34 31 32 32 33 34 36 42 55 70 76 78 81 85 89 95 99 99 96 95 89 80 74 75 79 85 90 94 94 93
231 266 283 296 305 308 306 306 308 299 270 243 233 233 228 222 227 239 243 217 152 113 88 76 54 11 8 30 52 56 46 34 30 29 28 26 22 14 4 5 5 357 354 6 28 46 58 66 66 59 57 58 56 51 46 40 37 37 37 39 42 41 43 55 71 81 84 82 78 76 80 84 83 79 75 72 71 71 72 73 71 70 74 82 93
225 254 286 297 296 302 315 317 308 294 269 241 227 224 221 218 218 203 154 96 70 74 70 63 64 53 33 36 49 53 45 37 36 34 30 26 28 32 30 18 1 349 7 36 47 49 59 68 64 56 57 60 52 43 41 42 45 44 41 42 44 43 41 49 64 79 85 81 76 74 72 70 74 80 81 76 73 72 74 74 68 63 65 67 67
240 254 286 303 301 302 314 322 318 319 326 336 341 321 253 165 141 90 85 78 66 71 76 74 69 66 55 48 51 54 49 41 36 37 38 42 52 57 45 27 8 0 26 47 47 40 47 57 55 49 52 57 57 52 42 35 38 43 42 42 46 44 41 47 67 89 92 80 71 67 61 55 60 70 71 65 59 58 67 79 79 71 70 68 59
245 253 283 296 295 293 299 315 327 325 320 314 295 192 143 116 99 84 83 92 94 86 83 81 74 66 58 53 53 57 58 53 47 47 53 61 68 67 55 40 34 37 48 53 47 40 41 46 48 49 50 50 56 61 51 35 29 31 30 31 35 38 45 69 84 93 93 80 67 61 52 47 53 60 59 53 46 41 49 66 73 67 65 64 58
241 240 267 283 288 286 278 290 324 335 322 300 327 111 119 110 100 96 88 88 94 94 93 89 79 67 60 60 62 61 61 60 57 57 61 70 78 79 70 59 56 58 63 61 49 38 35 36 37 41 45 45 46 50 48 39 28 21 14 14 22 30 53 94 97 90 83 73 68 64 55 45 41 42 40 38 43 49 50 52 55 59 64 62 58
238 231 248 267 278 275 264 279 322 353 12 3 14 81 115 111 102 100 92 80 86 93 93 93 90 79 73 74 73 68 65 64 60 57 59 67 76 79 76 72 66 63 63 63 54 37 27 26 22 22 27 28 20 12 9 4 355 350 349 355 8 24 47 82 88 81 70 52 47 46 45 44 46 44 38 37 43 49 52 53 54 56 54 50 49
242 232 237 256 266 263 255 264 289 319 356 350 2 60 105 106 111 123 119 104 101 102 96 93 95 90 82 77 68 61 62 61 58 56 55 52 53 56 60 66 68 62 56 53 44 28 12 3 358 353 351 350 342 332 327 323 317 317 321 329 339 355 24 39 45 59 67 58 37 23 24 37 49 45 43 45 45 44 48 55 59 58 56 55 54
247 239 238 247 251 249 247 245 242 239 241 251 236 166 165 152 140 140 139 128 116 104 94 94 92 81 74 72 63 55 56 58 57 57 54 46 40 38 39 45 55 54 46 37 23 3 347 344 354 357 354 352 350 343 333 328 325 319 319 331 344 342 14 55 61 78 87 83 63 20 21 50 55 49 52 57 55 54 59 59 53 51 52 52 51
245 238 237 240 241 242 241 236 231 233 236 228 218 210 201 187 171 170 169 157 140 123 107 105 107 84 63 64 67 62 58 59 63 59 50 41 33 23 21 27 36 36 28 18 358 342 342 353 9 16 13 8 9 10 7 7 10 8 6 24 40 32 41 68 77 95 105 101 84 46 40 60 51 37 56 67 54 51 54 48 42 43 44 42 41